Hourly Weather Kituryki

Today, 30 July, Friday

Time Temperature Precipitation Wind Pressure Humidity
00:00 +20°C° 0 mm 2 mps 744 mmHg 73%
01:00 +19°C° 0 mm 2 mps 744 mmHg 73%
02:00 +19°C° 0 mm 3 mps 744 mmHg 73%
03:00 +18°C° 0 mm 3 mps 744 mmHg 74%
04:00 +18°C° 0 mm 3 mps 744 mmHg 76%
05:00 +17°C° 0 mm 2 mps 744 mmHg 77%
06:00 +18°C° 0 mm 2 mps 744 mmHg 76%
07:00 +19°C° 0 mm 2 mps 744 mmHg 74%
08:00 +19°C° 0 mm 2 mps 744 mmHg 73%
09:00 +20°C° 0 mm 3 mps 744 mmHg 68%
10:00 +21°C° 0 mm 3 mps 744 mmHg 64%
11:00 +22°C° 0 mm 3 mps 744 mmHg 60%
12:00 +23°C° 0 mm 4 mps 744 mmHg 59%
13:00 +23°C° 0 mm 4 mps 743 mmHg 58%
14:00 +23°C° 0 mm 4 mps 743 mmHg 57%
15:00 +23°C° 0 mm 4 mps 743 mmHg 57%
16:00 +24°C° 0 mm 3 mps 743 mmHg 57%
17:00 +24°C° 0 mm 3 mps 742 mmHg 57%
18:00 +22°C° 0 mm 3 mps 742 mmHg 60%
19:00 +21°C° 0 mm 3 mps 742 mmHg 64%
20:00 +20°C° 0 mm 2 mps 742 mmHg 67%
21:00 +19°C° 0 mm 3 mps 742 mmHg 66%
22:00 +19°C° 0 mm 3 mps 743 mmHg 65%
23:00 +18°C° 0 mm 3 mps 743 mmHg 65%

Tomorrow, 31 July, Saturday

Time Temperature Precipitation Wind Pressure Humidity
00:00 +18°C° 0 mm 3 mps 743 mmHg 67%
01:00 +17°C° 0 mm 3 mps 743 mmHg 70%
02:00 +17°C° 0 mm 3 mps 742 mmHg 73%
03:00 +17°C° 0 mm 2 mps 742 mmHg 75%
04:00 +16°C° 0 mm 2 mps 742 mmHg 78%
05:00 +16°C° 0 mm 2 mps 742 mmHg 80%
06:00 +18°C° 0 mm 2 mps 742 mmHg 75%
07:00 +19°C° 0 mm 2 mps 743 mmHg 70%
08:00 +21°C° 0 mm 2 mps 743 mmHg 65%
09:00 +24°C° 0 mm 3 mps 743 mmHg 60%
10:00 +25°C° 0 mm 3 mps 743 mmHg 54%
11:00 +27°C° 0 mm 3 mps 743 mmHg 48%
12:00 +28°C° 0 mm 3 mps 743 mmHg 46%
13:00 +29°C° 0 mm 3 mps 742 mmHg 44%
14:00 +30°C° 0 mm 3 mps 742 mmHg 42%
15:00 +29°C° 0.5 mm 3 mps 742 mmHg 47%
16:00 +28°C° 0.5 mm 3 mps 742 mmHg 51%
17:00 +28°C° 0.5 mm 3 mps 741 mmHg 55%
18:00 +25°C° 3 mm 3 mps 741 mmHg 68%
19:00 +22°C° 3 mm 4 mps 742 mmHg 82%
20:00 +19°C° 3 mm 4 mps 742 mmHg 95%
21:00 +19°C° 0.2 mm 4 mps 742 mmHg 96%
22:00 +18°C° 0.2 mm 3 mps 742 mmHg 97%
23:00 +18°C° 0.2 mm 3 mps 742 mmHg 97%

Day after tomorrow, 1 August, Sunday

Time Temperature Precipitation Wind Pressure Humidity
00:00 +18°C° 0 mm 3 mps 742 mmHg 97%
01:00 +18°C° 0 mm 3 mps 742 mmHg 97%
02:00 +18°C° 0 mm 3 mps 742 mmHg 97%
03:00 +17°C° 0 mm 3 mps 742 mmHg 96%
04:00 +16°C° 0 mm 3 mps 742 mmHg 94%
05:00 +15°C° 0 mm 2 mps 742 mmHg 93%
06:00 +17°C° 0 mm 3 mps 743 mmHg 86%
07:00 +18°C° 0 mm 3 mps 743 mmHg 80%
08:00 +19°C° 0 mm 3 mps 743 mmHg 74%
09:00 +21°C° 0 mm 3 mps 743 mmHg 66%
10:00 +22°C° 0 mm 3 mps 743 mmHg 59%
11:00 +25°C° 0 mm 4 mps 743 mmHg 51%
12:00 +25°C° 0 mm 4 mps 743 mmHg 50%
13:00 +26°C° 0 mm 4 mps 743 mmHg 49%
14:00 +26°C° 0 mm 4 mps 743 mmHg 48%
15:00 +25°C° 0 mm 3 mps 743 mmHg 53%
16:00 +24°C° 0 mm 2 mps 743 mmHg 58%
17:00 +23°C° 0 mm 1 mps 743 mmHg 63%
18:00 +23°C° 0 mm 2 mps 742 mmHg 66%
19:00 +21°C° 0 mm 2 mps 742 mmHg 68%
20:00 +20°C° 0 mm 2 mps 742 mmHg 71%
21:00 +19°C° 0.3 mm 3 mps 742 mmHg 78%
22:00 +18°C° 0.3 mm 3 mps 742 mmHg 86%
23:00 +17°C° 0.3 mm 3 mps 742 mmHg 93%

2 August, Monday

Time Temperature Precipitation Wind Pressure Humidity
00:00 +17°C° 0.2 mm 3 mps 742 mmHg 93%
01:00 +16°C° 0.2 mm 3 mps 741 mmHg 94%
02:00 +16°C° 0.2 mm 3 mps 741 mmHg 95%
03:00 +16°C° 0.2 mm 3 mps 741 mmHg 95%
04:00 +16°C° 0.2 mm 3 mps 741 mmHg 96%
05:00 +16°C° 0.2 mm 2 mps 741 mmHg 96%
06:00 +16°C° 0.1 mm 3 mps 741 mmHg 95%
07:00 +16°C° 0.1 mm 3 mps 741 mmHg 94%
08:00 +16°C° 0.1 mm 3 mps 741 mmHg 94%
09:00 +17°C° 0 mm 3 mps 742 mmHg 89%
10:00 +18°C° 0 mm 3 mps 742 mmHg 84%
11:00 +19°C° 0 mm 3 mps 742 mmHg 79%
12:00 +20°C° 0.3 mm 3 mps 742 mmHg 73%
13:00 +21°C° 0.3 mm 4 mps 742 mmHg 68%
14:00 +22°C° 0.3 mm 4 mps 742 mmHg 62%
15:00 +22°C° 0.1 mm 4 mps 742 mmHg 62%
16:00 +22°C° 0.1 mm 4 mps 742 mmHg 61%
17:00 +21°C° 0.1 mm 4 mps 743 mmHg 60%
18:00 +21°C° 0 mm 3 mps 743 mmHg 63%
19:00 +20°C° 0 mm 3 mps 743 mmHg 66%
20:00 +19°C° 0 mm 3 mps 743 mmHg 70%
21:00 +18°C° 0 mm 3 mps 744 mmHg 77%
22:00 +17°C° 0 mm 2 mps 744 mmHg 85%
23:00 +15°C° 0 mm 2 mps 745 mmHg 92%

3 August, Tuesday

Time Temperature Precipitation Wind Pressure Humidity
00:00 +15°C° 0 mm 2 mps 745 mmHg 93%
01:00 +15°C° 0 mm 2 mps 745 mmHg 94%
02:00 +14°C° 0 mm 2 mps 745 mmHg 95%
03:00 +14°C° 0 mm 2 mps 745 mmHg 94%
04:00 +14°C° 0 mm 2 mps 746 mmHg 93%
05:00 +14°C° 0 mm 2 mps 746 mmHg 92%
06:00 +14°C° 0 mm 3 mps 746 mmHg 84%
07:00 +17°C° 0 mm 3 mps 747 mmHg 75%
08:00 +18°C° 0 mm 4 mps 747 mmHg 67%
09:00 +19°C° 0 mm 4 mps 747 mmHg 60%
10:00 +20°C° 0 mm 5 mps 747 mmHg 53%
11:00 +21°C° 0 mm 5 mps 747 mmHg 46%
12:00 +21°C° 0 mm 5 mps 748 mmHg 47%
13:00 +21°C° 0 mm 4 mps 748 mmHg 48%
14:00 +21°C° 0 mm 4 mps 748 mmHg 49%
15:00 +21°C° 0 mm 4 mps 748 mmHg 50%
16:00 +22°C° 0 mm 3 mps 747 mmHg 50%
17:00 +22°C° 0 mm 3 mps 747 mmHg 50%
18:00 +21°C° 0 mm 2 mps 748 mmHg 54%
19:00 +19°C° 0 mm 2 mps 748 mmHg 58%
20:00 +19°C° 0 mm 1 mps 748 mmHg 62%
21:00 +19°C° 0 mm 1 mps 748 mmHg 64%
22:00 +18°C° 0 mm 1 mps 748 mmHg 66%
23:00 +16°C° 0 mm 1 mps 748 mmHg 67%

4 August, Wednesday

Time Temperature Precipitation Wind Pressure Humidity
00:00 +16°C° 0 mm 1 mps 748 mmHg 68%
01:00 +15°C° 0 mm 1 mps 748 mmHg 69%
02:00 +15°C° 0 mm 1 mps 749 mmHg 70%
03:00 +14°C° 0 mm 1 mps 749 mmHg 70%
04:00 +14°C° 0 mm 1 mps 749 mmHg 71%
05:00 +14°C° 0 mm 2 mps 749 mmHg 72%
06:00 +16°C° 0 mm 2 mps 749 mmHg 68%
07:00 +17°C° 0 mm 2 mps 749 mmHg 64%
08:00 +19°C° 0 mm 2 mps 749 mmHg 60%
09:00 +21°C° 0 mm 2 mps 749 mmHg 56%
10:00 +23°C° 0 mm 2 mps 748 mmHg 52%
11:00 +24°C° 0 mm 3 mps 748 mmHg 49%
12:00 +25°C° 0 mm 3 mps 748 mmHg 49%
13:00 +25°C° 0 mm 3 mps 747 mmHg 50%
14:00 +26°C° 0 mm 4 mps 747 mmHg 51%
15:00 +23°C° 5.7 mm 4 mps 747 mmHg 64%
16:00 +20°C° 5.7 mm 4 mps 746 mmHg 77%
17:00 +18°C° 5.7 mm 4 mps 745 mmHg 91%
18:00 +18°C° 6.1 mm 4 mps 746 mmHg 93%
19:00 +17°C° 6.1 mm 4 mps 746 mmHg 94%
20:00 +16°C° 6.1 mm 3 mps 746 mmHg 96%
21:00 +16°C° 0 mm 3 mps 746 mmHg 97%
22:00 +16°C° 0 mm 2 mps 746 mmHg 97%
23:00 +16°C° 0 mm 2 mps 746 mmHg 98%
Show more